Location: Boston
(42.3580°N, 71.0600°W)
Time: 09:37:28
(UTC-04:00)

Tiangong 2 - Pass Details

Date: 14 October 2017
Orbit: 388 x 391 km, 42.8° (Epoch: 23 October)

Event Time Altitude Azimuth Distance (km) Brightness Sun altitude
Exits shadow 04:58:29 47° 81° (E) 529 2.1 -22.5°
Drops below altitude 10° 05:00:52 10° 83° (E) 1,422 5.1 -22.0°
Sets 05:02:57 0° 83° (E) 2,278 6.5 -21.6°
